CHINASAT 2A (ZX 2A)

Last updated on Nov. 19, 2019, 4:25 a.m. UTC

1 38352U 12028A   19322.45166688 -.00000288  00000-0  00000+0 0  9993
2 38352   0.0094 312.8040 0002241 287.7935  77.5036  1.00268254 27548
UTC
Height (km)
Latitude
Longitude
Inclination
Orbital Period
UTC large
Height (km)
Speed (km/s)
/
Latitude / Longitude
Inclination (degrees)
Orbital Period (minutes)
Azimuth
Elevation
Range (km)
Doppler Factor
iOS Compass Heading
iOS Angle

Next 30 passes for location: Hong Kong

Rise time Rise Azimuth (degrees) Set time Set Azimuth (degrees) Duration Max altitude (degrees)

No matching passes for this satellites